Wind_Speed
12 12 12 12 11 12 12 12 11 10 9 7 5 6 8 8 8 8 11 16 23 29 33 35 34 34 33 31 31 30 29 28 26 24 24 23 23 24 25 24 23 22 21 20 20 18 17 16 15 14 13 12 11 11 11 11 11 11 10 10 10 10 10 11 12 13 12 11 13 15 16 18 19 21 21 22 23 23 22 21 19 17 16 16 17
13 13 12 12 12 13 14 13 12 11 11 9 6 6 7 7 8 9 10 12 18 25 30 33 34 33 32 32 31 30 30 30 27 25 24 24 23 23 25 25 23 22 22 21 20 19 18 16 15 14 13 12 12 11 11 11 11 11 11 11 11 11 11 11 12 12 11 10 12 14 15 17 19 21 22 22 23 22 21 20 18 16 15 15 16
14 14 14 13 12 12 14 15 15 14 14 13 9 8 8 7 7 9 10 11 14 21 27 31 33 33 33 32 32 31 31 31 29 27 26 24 23 23 24 24 23 22 22 21 20 19 18 16 15 13 13 13 12 11 11 11 12 12 12 12 12 12 12 12 12 12 11 10 12 13 15 17 19 21 22 23 22 22 21 20 18 16 15 15 16
15 15 14 13 11 12 13 14 16 17 16 15 10 9 9 8 8 9 11 12 13 16 23 28 31 32 32 32 33 32 32 31 30 28 27 26 24 24 24 24 23 22 22 21 20 19 17 16 15 14 13 13 12 12 12 12 12 13 13 13 13 12 12 13 12 12 11 10 11 13 14 17 19 21 22 22 22 22 20 19 17 16 14 14 15
17 16 15 12 11 13 13 12 14 17 17 16 13 10 10 9 9 10 10 11 11 12 17 22 26 29 30 31 33 33 33 32 31 30 28 27 26 25 25 25 23 23 22 22 20 19 18 17 16 15 14 14 14 13 13 13 13 13 14 14 14 13 13 14 13 12 12 11 12 12 14 16 19 20 22 22 22 21 20 19 17 15 14 14 15
17 17 15 13 12 12 14 14 14 14 14 17 16 12 10 10 10 11 10 10 11 12 13 14 18 22 26 29 31 33 33 33 33 32 30 28 27 27 26 26 25 24 23 23 22 21 20 19 18 17 16 15 15 15 15 14 14 14 14 15 14 14 14 14 14 13 13 12 12 13 14 16 18 20 22 22 22 21 20 19 17 15 14 14 15
17 17 15 15 15 14 15 16 15 14 12 16 16 12 11 11 11 11 11 11 12 12 13 13 13 15 20 25 28 30 32 33 33 33 32 31 29 28 27 27 26 25 25 24 24 23 22 21 20 19 18 17 17 17 18 16 15 15 15 15 15 15 15 15 15 14 13 13 13 13 14 16 18 20 22 22 22 22 20 19 17 15 14 14 15
18 16 15 17 18 16 16 17 17 16 14 15 14 12 13 13 12 11 11 12 13 12 12 13 14 14 17 20 24 27 29 30 32 33 34 33 31 29 28 28 27 27 27 26 25 24 24 23 22 21 20 19 19 19 20 19 17 16 16 16 16 16 16 16 15 15 14 14 14 14 15 17 19 21 22 22 23 22 21 19 18 16 15 15 15
19 17 15 16 18 17 17 19 20 18 16 16 15 14 15 14 14 13 12 12 12 12 13 13 14 16 17 19 21 24 26 27 28 30 33 34 33 32 31 30 29 28 28 27 27 26 25 24 23 23 21 20 20 20 21 20 19 18 18 17 17 17 17 17 16 16 15 15 14 14 15 17 19 21 22 23 23 22 21 20 18 17 16 15 15
21 19 17 17 18 19 19 20 20 18 18 19 18 18 17 17 17 16 14 13 11 13 15 15 15 17 19 20 20 22 24 25 26 27 30 32 34 34 34 33 32 31 30 29 28 27 27 26 25 24 22 21 21 21 21 21 21 19 18 19 19 19 19 18 17 17 17 16 15 15 16 18 19 21 22 23 23 23 21 20 19 18 16 15 15
24 22 20 18 18 18 19 21 20 19 20 21 20 20 20 19 19 18 16 15 14 14 16 17 16 17 18 18 19 20 22 23 24 25 26 28 32 34 34 34 34 33 33 32 31 30 29 28 27 26 24 23 23 23 22 22 21 20 20 20 20 20 20 19 18 17 18 17 16 16 17 18 19 21 22 23 23 23 22 21 20 19 18 16 16
27 27 25 23 21 20 20 21 21 21 22 23 21 21 21 20 20 19 19 19 18 17 17 18 17 17 18 18 19 18 18 20 22 23 23 25 27 30 33 33 34 34 33 33 32 31 31 30 29 27 26 25 24 24 23 22 21 21 21 21 20 20 20 20 19 18 18 19 18 17 18 19 20 21 23 24 24 23 22 21 20 20 19 18 16
23 26 27 27 26 25 24 24 24 23 24 22 19 20 21 21 21 20 20 21 20 19 19 18 18 18 18 20 21 19 18 17 19 21 22 23 23 26 28 30 32 32 32 32 32 31 31 30 29 27 27 26 25 24 23 22 22 22 22 22 21 20 20 20 20 19 19 20 19 19 19 20 21 22 23 24 24 24 23 21 21 21 20 19 17
18 20 22 24 26 27 28 29 28 28 27 24 20 21 21 22 22 21 21 22 21 21 21 21 22 21 20 21 23 22 20 19 19 19 20 22 22 23 24 27 29 30 30 31 31 31 30 30 29 28 27 26 26 25 24 24 23 23 23 23 21 20 20 21 20 20 20 21 21 21 21 22 22 23 24 25 25 24 23 22 21 21 21 20 18
16 17 18 20 21 23 26 28 29 31 31 28 25 24 23 23 23 22 23 24 23 23 24 24 23 23 23 24 24 23 22 22 21 19 18 20 22 23 24 25 26 27 29 30 30 30 29 29 29 29 28 27 27 27 26 25 24 24 24 24 23 22 22 22 22 21 21 22 23 22 23 23 23 24 24 25 26 25 24 23 21 21 22 21 20
14 15 15 17 18 19 21 23 25 27 29 29 29 28 27 27 25 24 25 26 25 26 26 26 24 24 26 26 26 26 26 25 25 22 20 21 21 22 24 25 25 26 29 30 30 30 30 29 29 29 29 29 28 28 28 27 26 25 25 25 25 25 24 24 24 23 22 22 24 24 24 25 25 25 25 26 26 26 25 24 22 21 22 21 21
12 13 13 14 16 17 19 21 23 24 25 26 27 28 30 30 29 28 27 27 28 28 28 27 27 29 29 28 28 28 29 28 28 27 26 26 24 23 24 24 24 25 27 29 30 31 31 31 30 29 29 30 29 28 29 29 28 27 27 28 27 27 26 26 26 25 24 23 25 26 26 26 26 26 26 27 27 26 25 24 23 22 21 22 21
8 9 10 11 13 15 17 19 21 22 23 24 25 26 27 30 31 31 30 31 31 30 29 29 31 33 32 30 30 31 30 30 30 30 29 29 27 25 24 23 23 24 25 27 28 30 31 32 32 31 30 30 29 28 28 29 30 30 30 30 30 29 29 28 28 29 27 25 26 27 28 28 28 27 27 28 28 27 25 25 24 22 21 21 22
8 8 8 8 9 11 14 16 18 20 22 23 24 26 27 28 29 30 31 33 34 34 32 32 34 34 32 31 33 34 33 32 32 32 31 30 29 28 27 26 25 25 24 25 26 28 29 31 32 32 32 31 30 29 28 28 29 31 32 33 32 31 31 30 31 31 30 28 27 29 30 30 29 28 28 28 29 27 26 25 24 23 22 21 22
9 9 9 9 8 9 11 13 16 17 19 20 22 24 26 28 29 29 30 32 34 35 35 36 36 35 33 33 35 36 34 33 33 34 34 33 31 31 30 28 27 26 25 25 26 27 27 28 29 30 32 32 31 31 29 28 29 30 32 33 34 34 33 33 33 34 33 30 30 31 31 31 30 30 29 29 29 28 26 25 24 23 22 21 21
11 10 10 10 10 10 10 11 13 14 16 18 20 21 23 25 27 28 29 30 31 32 34 36 37 37 37 36 36 37 36 35 34 35 36 36 35 34 32 30 30 28 27 27 27 27 26 27 28 29 31 31 31 30 30 30 30 29 30 31 33 34 35 36 35 35 34 32 32 33 33 32 31 31 31 30 30 29 27 26 25 23 22 21 21
13 13 12 12 11 11 11 11 12 13 14 16 18 19 21 22 24 26 27 29 30 31 32 33 35 37 39 39 39 39 38 37 35 34 36 38 37 36 34 32 32 32 31 29 28 27 27 28 28 28 29 29 28 28 28 29 30 30 29 29 31 33 35 36 36 36 36 34 34 35 34 33 32 32 32 31 31 30 27 26 25 24 23 21 21
13 14 14 15 14 13 13 12 12 13 13 15 16 17 19 21 22 23 24 26 28 30 31 32 33 35 37 39 40 41 41 39 37 35 36 37 37 37 36 34 34 34 33 32 30 29 29 30 31 30 30 28 26 26 26 27 28 29 28 29 32 33 32 33 35 36 36 35 36 36 35 35 34 33 33 32 31 30 28 26 25 24 23 22 21
13 13 14 15 16 16 16 15 14 13 13 14 15 16 17 19 20 21 22 24 26 27 29 30 32 33 34 37 38 39 40 40 39 38 37 37 38 38 37 36 37 36 34 34 33 32 32 32 33 33 32 30 27 25 25 25 26 26 26 27 32 34 32 32 34 35 35 35 36 37 36 35 35 34 33 32 31 30 28 27 25 25 24 22 22
14 14 15 15 16 17 17 17 17 16 15 15 15 16 17 17 18 19 20 21 23 25 26 28 30 30 31 33 35 36 38 38 38 40 40 39 39 41 39 38 38 37 36 37 36 35 34 34 33 33 33 32 28 26 26 26 24 23 23 24 29 33 33 32 34 34 33 34 35 36 36 36 36 35 34 33 32 30 29 27 25 25 24 23 22
16 16 16 17 17 16 17 17 17 18 18 18 17 17 18 18 18 18 19 20 21 23 24 26 28 29 30 31 32 34 35 34 34 37 39 40 41 42 40 39 39 38 38 39 39 37 36 34 34 33 32 31 29 27 27 27 25 23 22 22 25 30 32 32 33 33 33 33 35 35 36 36 36 35 34 33 32 30 29 27 26 25 25 24 23
18 18 18 18 19 18 18 17 18 18 18 19 19 19 20 20 20 19 19 19 20 22 22 24 26 28 29 30 31 32 33 32 32 32 33 36 38 39 39 39 39 39 39 40 40 39 37 36 35 34 33 32 31 29 29 29 28 25 23 21 21 24 29 31 33 33 32 32 34 35 35 35 35 35 34 33 31 30 29 27 26 25 25 24 23
18 19 19 20 20 20 20 20 20 20 20 21 21 21 21 22 23 23 21 21 21 21 21 23 24 26 27 29 31 31 31 32 33 33 32 32 33 34 37 38 39 41 41 41 41 39 37 38 38 36 36 36 34 31 29 30 30 27 23 20 19 20 24 29 32 34 32 32 34 34 34 34 35 35 34 32 31 30 29 28 27 26 25 24 24
19 19 20 21 21 22 22 22 22 22 22 23 23 23 24 23 24 24 24 24 24 23 22 23 24 25 26 27 29 30 30 31 33 34 35 34 33 34 36 37 40 42 43 43 42 39 38 39 38 37 37 37 35 32 30 29 29 29 24 19 17 17 19 24 30 33 33 33 34 34 33 33 34 34 33 32 31 30 29 28 27 26 25 25 25
20 20 21 21 22 23 23 24 24 24 24 24 25 25 25 25 24 25 26 27 26 24 24 24 24 25 26 26 28 28 29 30 32 34 36 37 37 37 36 36 39 41 42 43 44 41 38 39 39 38 37 37 36 33 32 31 30 30 26 20 17 16 17 20 25 29 31 33 34 34 32 33 33 33 32 31 30 29 28 28 27 26 25 25 26
21 22 22 23 24 24 24 24 25 25 25 25 26 27 27 26 25 25 25 27 28 27 26 26 26 26 27 27 28 28 28 30 32 33 35 37 39 39 39 39 40 40 40 43 44 40 37 37 39 40 39 39 39 36 35 35 33 31 28 22 18 17 17 18 20 24 27 29 32 33 33 32 33 32 31 31 29 28 28 27 27 26 26 27 27
22 23 23 24 25 25 25 25 25 25 25 26 26 27 28 28 27 26 26 27 28 29 28 28 27 27 28 28 29 29 29 30 31 33 34 36 38 40 41 41 40 39 40 43 45 41 36 37 39 41 42 41 40 39 39 40 37 34 31 26 22 20 18 18 18 20 23 25 27 30 33 33 32 31 31 30 28 27 27 27 27 26 27 28 28
22 23 23 24 25 26 26 26 26 26 26 27 28 28 29 30 30 29 28 28 28 28 29 29 29 29 29 29 30 30 31 32 32 33 34 35 37 39 41 41 41 41 40 41 43 42 41 41 41 42 43 44 43 40 40 41 39 36 33 29 25 23 21 20 19 20 22 24 25 27 31 32 32 32 31 29 27 27 27 26 26 26 28 29 29
23 24 24 25 26 27 27 27 28 28 28 29 29 30 30 30 31 31 30 30 30 29 29 29 30 31 31 31 31 31 32 34 34 33 34 35 37 38 40 42 42 42 41 40 40 42 42 42 42 43 44 46 46 43 41 41 40 39 36 31 28 26 24 23 22 22 23 24 25 26 29 32 33 33 31 28 27 26 26 26 26 27 29 30 30
25 25 26 27 27 28 28 28 29 29 30 30 30 31 31 31 31 32 32 32 32 31 30 30 30 31 32 33 32 31 32 35 36 36 35 35 36 37 38 41 42 42 43 42 41 41 42 41 42 43 43 45 46 45 44 43 42 42 41 35 30 28 26 23 22 22 22 22 24 26 29 31 33 33 31 28 27 27 26 26 27 28 29 30 30
26 27 27 28 28 29 29 30 30 31 31 31 32 32 32 32 32 33 33 34 34 33 33 32 31 31 33 33 33 32 33 35 36 37 37 37 36 36 36 37 40 41 42 43 43 43 43 41 42 43 43 43 44 44 45 45 44 44 42 37 33 32 30 25 23 24 22 22 23 25 29 31 33 33 31 29 28 27 27 27 27 28 29 29 30
28 28 28 29 29 30 31 31 31 32 33 33 34 34 33 33 33 33 34 35 35 36 35 34 33 33 33 34 33 33 34 35 36 36 38 39 38 38 36 35 36 38 41 42 42 44 44 43 42 42 42 42 42 43 46 46 44 43 43 41 39 39 38 32 28 27 26 23 23 25 27 30 33 33 33 31 29 28 27 27 27 28 29 29 29
29 29 29 30 31 32 32 33 33 34 35 36 36 36 36 35 35 34 35 36 37 37 37 36 36 35 35 35 34 34 35 35 35 35 36 39 40 40 39 37 35 34 37 39 40 41 43 43 43 43 43 42 41 43 46 47 46 45 46 46 45 45 46 41 34 30 29 26 25 26 27 29 32 34 34 32 30 28 28 27 27 28 29 29 29
30 31 32 32 33 34 34 34 35 36 37 38 39 39 39 38 37 36 36 37 38 39 39 38 38 37 37 36 35 35 35 36 36 35 35 36 39 40 41 40 38 35 35 36 37 38 39 40 42 44 44 44 43 43 43 45 47 48 49 51 51 50 51 48 40 33 31 30 29 28 27 28 31 33 34 32 30 30 29 28 27 28 28 28 27
32 32 33 34 35 36 36 36 37 38 39 40 40 41 41 40 39 38 38 38 39 40 40 40 39 39 39 38 37 36 35 36 36 36 35 35 36 39 40 41 41 39 37 35 35 36 37 38 39 41 44 46 46 43 43 45 46 47 49 51 52 52 53 51 46 39 35 34 33 31 29 29 30 32 33 32 31 31 30 28 27 28 28 25 24
33 34 35 36 37 38 38 38 39 39 40 41 41 42 42 41 40 39 39 39 39 40 41 41 40 40 40 39 38 37 36 37 36 36 36 35 35 36 37 39 41 42 41 38 35 34 37 38 39 40 41 44 45 44 45 46 45 44 46 47 48 49 49 50 49 47 44 40 37 34 32 31 31 32 33 31 30 29 29 27 27 28 26 23 24
35 36 37 38 39 40 40 40 40 40 41 41 41 41 42 42 41 41 40 40 39 40 40 41 41 40 40 40 39 38 38 37 37 37 36 35 34 34 34 35 39 42 43 41 39 37 37 37 39 40 41 42 43 44 46 46 44 43 44 45 46 46 47 48 50 49 47 44 40 37 34 32 32 33 33 31 30 30 29 28 27 26 25 25 27
36 37 39 40 40 40 41 41 41 41 42 42 42 41 41 42 42 41 41 40 40 40 40 41 41 41 41 41 40 40 39 38 38 38 37 36 35 34 33 33 34 38 42 43 42 41 40 40 40 41 41 40 41 44 45 44 45 45 44 43 43 44 46 48 49 49 48 46 42 38 36 34 34 35 34 33 32 31 30 29 27 25 27 32 33
37 38 39 40 40 40 41 41 41 42 42 42 42 41 41 42 42 42 41 41 41 41 41 41 41 41 42 42 42 41 40 39 39 39 39 39 37 36 35 34 33 34 37 41 43 43 43 44 42 42 41 39 40 43 45 44 45 46 45 44 44 43 43 45 47 48 48 46 44 40 37 35 33 33 34 34 34 33 31 29 27 27 32 35 34
38 39 39 39 39 40 40 41 42 43 43 42 41 41 41 41 41 42 42 42 41 41 41 42 42 42 43 43 44 43 42 41 41 41 41 41 40 39 37 36 35 34 34 37 41 43 45 46 46 45 43 42 43 45 43 41 43 45 45 46 45 44 44 44 45 46 47 49 49 43 38 34 31 30 32 33 33 32 30 29 28 30 33 32 31
38 39 39 39 39 40 41 42 43 43 43 42 41 41 41 41 41 42 43 43 43 42 43 43 43 43 44 44 45 45 44 43 43 43 43 43 43 43 42 40 38 37 36 36 38 41 44 47 49 48 46 46 47 46 41 38 39 42 44 45 44 43 43 42 43 45 47 51 51 45 39 34 30 31 31 31 32 31 29 29 30 31 31 30 31
38 39 39 40 40 41 42 43 44 43 42 41 41 41 41 41 42 42 43 44 44 45 44 45 45 45 45 46 47 47 47 46 45 46 46 46 46 46 46 44 42 40 39 38 38 39 43 47 49 50 49 48 48 47 44 40 39 39 41 42 42 42 42 41 42 44 45 47 47 45 41 36 33 34 33 32 32 31 29 29 31 31 30 30 32
38 39 40 41 42 42 43 43 43 43 42 41 41 41 41 42 43 44 45 46 46 47 47 47 47 48 48 48 49 49 49 49 48 48 48 48 49 49 48 48 46 43 41 40 40 40 41 45 48 50 49 50 50 50 47 43 41 40 39 40 42 43 43 43 43 42 40 41 42 42 40 37 36 36 35 34 33 31 30 31 31 31 30 33 35
38 39 40 41 42 42 43 43 42 41 41 40 41 41 42 43 44 45 47 47 48 49 49 49 50 50 51 51 52 53 53 52 52 51 51 51 51 51 50 49 50 48 45 42 42 42 42 43 46 48 49 50 51 51 49 46 44 43 43 43 41 41 42 43 43 42 40 39 39 38 37 37 36 36 35 35 33 32 32 32 33 32 32 34 36
37 39 40 41 41 41 42 41 41 41 40 40 40 41 42 43 45 46 48 49 50 51 51 52 52 52 53 54 54 56 56 56 56 56 56 55 54 53 52 51 51 51 48 46 46 45 43 43 44 45 47 50 51 52 52 50 48 48 49 47 42 39 39 39 38 38 39 39 38 37 38 39 38 36 36 35 34 33 33 33 34 34 33 35 38
37 38 39 40 40 40 39 39 39 40 40 40 41 42 43 44 45 47 49 50 52 52 53 53 53 54 55 56 56 58 59 59 59 59 59 58 57 56 55 53 52 51 51 50 49 48 46 46 45 43 44 47 50 51 52 52 51 50 50 49 46 43 40 37 34 35 37 37 36 39 43 42 39 37 36 33 33 33 32 33 34 34 34 37 39
Wind_Direction
231 225 221 226 226 223 221 217 211 209 218 230 228 235 242 233 226 218 209 204 203 203 203 203 203 203 204 204 206 206 210 216 214 214 218 216 215 217 222 228 227 228 230 229 228 227 227 230 233 236 241 248 254 259 264 268 272 276 278 282 288 295 302 310 316 320 327 339 345 346 348 352 354 354 354 355 358 1 2 3 9 15 15 14 13
233 232 231 230 229 227 226 222 217 211 215 229 235 226 232 230 230 231 220 211 209 206 205 205 206 206 207 208 210 209 210 215 214 213 217 216 215 216 221 227 228 228 230 230 230 229 229 230 235 239 244 249 254 260 265 269 273 275 277 279 283 290 297 304 311 316 321 334 340 342 347 352 353 353 352 354 356 360 2 2 5 11 12 9 9
233 233 232 229 229 231 233 229 218 211 214 221 230 226 220 218 226 235 229 223 219 213 209 207 207 208 210 211 212 213 214 217 216 213 216 216 214 215 219 225 227 226 228 228 229 230 229 229 233 239 245 250 254 259 265 269 273 276 277 278 281 286 292 299 307 310 314 327 334 338 345 351 352 352 351 352 354 357 0 0 0 5 7 5 4
227 227 227 227 240 242 238 234 220 214 216 217 224 226 215 215 223 228 227 226 223 218 212 210 210 211 213 215 216 216 217 221 222 218 217 218 216 214 217 222 224 224 226 227 227 227 228 228 229 235 242 250 255 259 263 266 270 274 278 279 280 284 289 294 302 306 308 318 327 333 342 347 349 350 349 350 352 354 358 358 357 358 1 359 359
224 224 224 228 247 250 243 241 230 221 220 219 218 215 206 209 222 226 224 226 229 225 218 215 217 217 217 218 220 220 220 222 226 224 221 221 220 217 217 220 222 222 223 225 224 223 226 227 228 232 239 248 256 260 261 263 266 269 274 277 280 282 285 290 298 301 302 309 319 327 336 342 345 347 347 348 350 351 355 356 354 353 354 353 354
228 226 228 231 235 238 240 245 243 232 224 224 220 210 206 205 218 231 230 230 238 239 232 223 224 226 225 224 225 226 225 224 227 228 226 225 224 221 219 220 221 222 221 223 224 223 225 228 229 232 238 245 253 259 260 260 262 264 268 273 277 278 280 286 293 295 295 302 312 321 330 335 340 342 344 346 347 349 351 352 351 349 348 348 349
236 232 232 237 233 228 235 240 243 238 229 230 224 217 218 212 217 234 238 233 234 240 242 237 235 236 233 230 229 231 231 230 230 231 229 227 226 225 223 222 223 224 225 225 227 228 229 230 231 233 236 242 247 254 258 258 257 258 261 266 271 273 275 281 287 289 289 295 306 315 322 328 333 337 340 343 345 346 347 347 346 345 344 343 344
242 239 235 240 239 231 230 232 235 236 233 233 228 225 228 222 223 234 239 238 234 235 239 241 243 244 240 235 233 233 235 236 237 237 236 233 230 230 229 227 226 227 229 230 232 233 234 235 235 236 238 241 245 250 255 257 256 255 257 260 264 267 270 276 281 282 282 289 299 308 315 321 327 331 335 339 342 343 343 342 342 340 339 338 339
245 245 239 240 244 242 235 229 229 229 231 233 226 225 229 227 228 231 235 241 241 241 240 238 240 244 245 242 238 237 237 238 240 242 243 242 238 236 235 234 233 232 232 234 236 237 238 239 241 242 244 245 247 250 254 257 256 255 256 257 259 261 265 270 275 277 277 283 292 300 308 315 322 326 330 334 338 339 339 338 338 336 335 334 334
246 247 242 236 241 248 247 241 234 226 227 232 227 224 225 224 226 228 234 239 241 246 248 243 241 244 246 246 245 244 242 241 242 244 248 250 248 244 241 240 240 239 238 238 240 242 243 244 246 247 249 250 251 251 252 255 257 257 257 257 257 258 261 265 269 271 273 279 287 295 303 310 316 320 324 328 333 336 336 334 333 332 330 330 330
245 246 245 240 237 241 248 252 250 239 233 233 230 225 222 222 226 227 232 238 238 242 249 249 248 250 252 250 251 252 252 250 249 249 251 254 256 255 252 249 246 245 245 243 243 244 246 247 248 250 251 251 251 252 251 252 254 256 255 254 255 257 258 261 263 265 270 276 282 291 298 305 310 314 318 323 327 331 333 331 329 328 326 325 325
242 243 244 245 242 240 243 250 254 252 245 237 229 225 223 225 228 228 231 235 236 238 246 252 254 255 257 256 254 253 254 255 255 255 253 255 259 262 262 259 257 254 252 250 248 247 246 246 246 248 250 250 250 250 250 250 251 253 253 253 254 256 258 260 260 262 267 274 280 288 294 300 304 308 313 317 322 326 329 328 326 324 322 321 321
240 241 242 243 244 243 242 244 247 251 250 244 236 233 230 231 234 236 235 233 233 236 242 252 256 255 256 259 258 254 248 246 251 256 259 258 259 264 267 268 266 264 261 258 255 252 250 249 247 245 246 248 250 251 251 251 250 250 252 254 255 257 258 259 260 261 265 272 278 285 291 295 299 303 308 312 316 321 325 324 323 321 318 317 318
242 242 242 241 242 242 243 243 243 245 248 249 246 243 239 237 238 239 239 237 233 231 235 243 250 251 252 256 260 259 252 244 241 246 256 262 261 261 265 268 270 270 268 265 261 258 256 255 253 249 246 246 248 251 251 251 250 249 251 254 256 256 257 258 259 261 265 271 277 283 288 291 295 299 303 308 311 316 320 320 319 316 314 314 315
248 246 245 244 244 244 245 246 245 245 247 247 246 247 247 244 241 240 240 242 238 234 235 239 242 246 249 252 258 262 261 257 250 247 254 262 262 260 261 264 268 270 270 269 266 264 261 260 259 256 253 248 247 248 249 250 249 248 248 252 254 255 256 257 259 261 265 271 276 281 284 287 291 295 299 303 307 311 315 316 315 312 310 312 314
254 252 249 248 248 247 248 249 250 250 249 248 246 245 246 247 246 245 243 244 243 240 242 243 242 244 247 249 252 256 259 261 262 263 263 263 264 266 266 265 267 269 270 271 270 268 266 264 262 259 257 253 249 248 248 249 248 248 248 249 251 253 255 257 260 262 264 269 274 278 281 283 287 291 295 299 302 306 310 312 310 308 308 311 312
258 256 254 251 249 248 248 248 249 250 251 250 248 246 246 247 248 248 246 245 244 243 244 245 245 243 245 247 249 252 256 259 261 263 265 266 267 269 270 271 271 270 272 273 274 272 269 267 264 261 257 254 252 249 248 248 248 248 248 249 250 252 254 257 260 262 263 266 271 275 277 280 283 287 291 295 298 301 306 308 307 305 306 309 311
271 266 261 254 250 250 249 249 249 249 250 249 247 246 246 247 247 247 246 246 246 244 243 244 245 246 247 250 251 251 253 256 259 260 261 264 266 267 269 272 273 274 276 279 280 279 276 271 267 264 260 256 253 250 248 246 247 248 249 250 250 251 254 256 259 261 262 263 267 271 273 276 280 283 287 291 294 297 301 304 303 303 304 306 309
295 288 279 267 257 253 251 251 251 250 250 249 248 246 245 245 245 245 244 245 246 245 243 243 245 248 249 251 252 250 250 253 258 261 262 263 264 266 267 268 271 274 277 280 282 283 283 279 274 269 265 261 258 255 252 247 246 247 249 251 251 252 254 255 257 260 262 263 265 268 270 273 277 280 283 287 290 293 297 300 300 299 301 303 307
298 296 292 285 274 262 255 253 253 254 253 252 250 248 247 247 246 246 245 245 246 246 244 244 245 247 248 248 250 252 251 252 255 260 262 263 263 263 264 266 268 269 271 276 280 282 283 282 279 275 269 265 261 259 257 253 249 248 249 250 252 253 253 254 255 257 261 263 265 266 268 271 274 277 280 283 287 289 293 296 296 296 297 300 304
301 299 296 291 286 278 269 262 258 257 257 256 255 252 250 250 249 249 248 247 248 248 248 247 246 247 247 248 250 252 253 251 251 254 257 260 260 260 260 262 264 266 270 275 277 279 280 280 278 276 273 269 265 262 259 257 255 253 252 252 252 252 252 253 253 254 258 261 263 264 266 268 271 274 277 280 283 286 290 293 293 293 294 297 300
300 298 297 292 289 284 278 273 268 263 260 259 258 257 256 255 253 252 251 249 248 249 249 248 248 247 248 248 248 250 252 253 253 253 255 258 260 260 257 258 262 268 272 273 272 273 275 276 275 274 274 273 271 269 265 261 259 256 256 256 256 254 253 253 253 254 255 257 259 261 264 266 268 270 273 276 279 283 287 289 289 289 289 292 296
292 294 296 296 295 292 289 283 278 274 270 266 264 262 260 258 258 257 255 254 252 251 250 249 247 246 247 248 249 249 250 253 254 254 254 256 259 260 256 255 262 267 268 268 268 269 270 272 274 276 277 276 275 275 274 269 264 260 259 258 258 258 257 255 255 254 254 255 256 258 260 263 266 268 270 273 276 280 283 285 285 286 285 287 290
285 283 284 288 290 291 292 289 286 282 278 276 273 271 269 267 264 262 259 258 257 256 254 253 251 248 247 248 249 250 250 250 252 252 253 253 255 256 255 254 258 261 262 262 263 264 265 268 272 276 277 275 274 276 278 276 272 268 266 262 260 260 260 259 258 255 255 255 255 256 258 260 263 266 268 270 273 277 280 281 282 282 282 283 286
286 282 279 280 282 284 289 292 293 292 290 287 282 278 276 275 274 273 269 265 262 260 258 257 257 255 251 249 249 250 251 250 250 250 251 251 251 252 253 253 254 255 256 256 257 258 259 262 267 272 275 274 272 275 277 279 279 277 275 269 263 259 259 261 261 259 257 255 254 254 255 257 260 263 265 268 270 274 277 278 279 279 279 281 283
293 290 287 284 284 283 285 287 289 291 292 293 292 289 285 281 279 278 278 275 271 267 264 261 260 259 258 254 251 250 250 251 250 250 250 250 250 251 252 252 252 252 250 251 255 256 257 259 261 265 269 270 270 273 277 280 281 281 280 279 271 262 257 258 261 260 258 255 254 253 253 254 256 259 262 265 268 272 275 275 276 276 277 279 281
296 293 291 288 286 284 283 283 283 284 286 287 289 289 289 288 286 283 280 279 276 274 271 266 263 261 260 259 255 252 249 248 248 250 251 252 252 253 252 251 252 251 249 249 252 253 255 255 256 258 262 264 267 271 274 276 277 278 280 283 281 269 257 254 257 258 256 255 253 253 252 252 253 256 259 262 266 270 272 273 273 273 274 276 279
293 292 291 290 288 288 287 287 286 285 285 284 284 283 284 286 287 287 284 281 278 276 274 271 268 264 261 260 259 257 253 249 245 245 247 250 252 253 252 251 250 250 250 250 250 250 252 252 250 253 257 259 262 267 271 272 274 275 277 282 286 276 258 250 251 253 252 252 252 252 251 251 251 253 256 260 264 268 270 270 270 271 271 273 276
289 289 289 288 289 289 289 289 288 287 286 285 284 283 283 284 286 288 287 284 281 278 275 273 271 269 265 262 261 260 258 253 248 243 242 243 246 249 250 250 251 251 251 251 250 248 249 248 247 249 254 257 259 264 268 269 272 276 278 280 284 283 267 252 247 248 248 248 250 251 250 249 248 249 253 257 261 265 267 268 269 269 269 270 272
288 288 288 288 288 288 288 288 288 288 287 286 285 283 282 283 285 287 287 286 284 281 277 274 272 271 269 265 262 260 258 256 253 248 243 241 242 244 247 250 252 251 251 253 252 249 247 246 245 244 248 253 256 259 263 265 268 276 279 278 276 280 278 262 249 246 246 247 248 249 248 248 246 247 250 255 259 263 264 266 267 268 268 269 270
289 289 289 289 288 288 288 289 289 289 288 288 288 286 284 282 282 283 284 285 284 284 281 276 272 269 268 267 264 261 258 256 254 251 248 244 241 240 243 246 249 250 252 256 256 251 247 246 245 243 244 248 252 255 259 260 264 271 275 274 270 271 275 269 257 251 251 252 251 249 247 246 245 245 248 252 257 260 263 265 266 267 268 269 270
289 290 290 290 290 290 290 290 290 289 288 288 288 288 288 287 285 283 282 281 281 283 282 279 275 271 267 266 265 263 261 256 253 251 250 249 245 241 240 242 245 248 250 254 255 252 247 246 245 244 245 246 249 253 255 257 261 266 269 269 267 266 270 271 267 261 260 260 257 251 248 246 245 245 247 252 257 260 262 264 265 266 267 268 270
289 289 289 289 289 290 291 291 291 289 288 288 286 286 286 287 287 285 283 280 277 278 279 279 277 274 270 266 263 262 261 259 255 252 249 249 248 245 242 240 241 244 247 250 253 251 246 245 246 246 247 246 247 251 253 255 260 263 264 265 265 266 269 271 270 270 268 267 263 256 250 246 245 245 248 252 256 259 262 263 263 264 266 268 269
289 290 289 290 290 290 291 291 290 289 288 287 286 284 283 283 284 284 282 280 277 275 275 275 275 274 272 269 265 261 260 258 257 254 251 249 248 247 246 244 242 241 243 247 251 251 247 246 248 249 249 248 247 248 249 253 258 259 259 263 265 265 268 268 269 271 272 272 268 261 254 248 245 247 249 252 255 258 261 261 262 263 265 267 269
289 290 290 290 291 290 290 290 289 289 288 287 286 284 283 282 282 282 280 279 277 275 273 272 272 272 271 270 268 264 261 258 256 254 253 250 249 248 248 248 246 243 242 244 248 250 248 246 248 250 251 250 248 246 246 250 255 255 256 259 260 261 263 264 266 269 272 275 274 268 260 251 246 247 249 251 254 257 259 259 260 262 265 267 269
287 289 289 290 290 290 290 290 290 289 289 288 286 285 284 282 280 279 278 277 275 273 271 270 269 269 269 269 269 268 265 260 257 254 253 251 250 250 249 249 250 248 245 244 245 248 248 245 246 250 251 251 249 246 243 246 251 254 254 255 255 257 261 261 260 262 267 273 276 275 267 255 249 248 249 251 253 255 257 259 260 262 265 268 270
288 289 289 289 290 289 290 290 290 290 289 288 287 285 284 282 280 278 276 275 274 272 270 269 269 268 268 268 268 268 267 265 261 256 253 252 250 249 249 249 251 252 250 246 244 245 246 244 246 250 251 251 250 247 241 241 246 249 250 250 251 255 260 260 256 257 261 268 275 279 272 260 251 250 251 251 253 255 256 258 260 263 265 268 271
290 290 291 291 290 290 290 291 291 292 292 291 290 288 285 283 281 278 275 273 272 271 269 268 268 268 268 268 267 267 268 267 266 262 257 254 251 249 248 247 248 251 255 254 249 245 244 244 245 248 250 250 250 248 243 241 243 247 248 249 250 253 257 257 255 254 258 264 271 275 273 263 253 252 254 254 254 255 256 257 260 263 265 268 272
290 291 291 292 292 292 292 293 294 295 295 294 293 290 288 284 281 278 275 272 270 269 269 268 267 267 268 269 269 268 268 268 268 266 262 257 254 251 249 247 245 244 248 254 255 252 248 246 246 247 248 248 249 249 247 244 244 246 247 249 249 250 253 255 253 254 258 263 266 269 270 265 256 253 255 256 255 255 255 256 259 262 263 267 272
290 291 292 292 292 293 294 295 296 296 295 294 292 290 288 285 282 279 275 272 270 269 268 268 268 268 268 269 270 269 268 267 267 267 265 262 258 254 251 249 247 244 242 243 248 253 252 248 246 246 247 247 249 250 249 247 246 246 246 248 250 250 252 254 254 254 259 264 264 263 263 263 260 256 254 255 255 256 256 256 257 260 262 266 275
290 291 291 292 292 293 295 296 297 296 294 293 292 291 289 287 284 280 277 274 271 270 269 269 269 269 269 269 270 270 268 266 265 264 265 265 263 258 253 250 249 247 244 240 239 243 248 248 247 246 247 247 249 250 250 249 250 250 249 250 253 252 251 252 253 253 256 261 262 259 257 258 260 258 255 254 256 257 257 256 256 258 260 265 271
290 290 291 291 292 295 297 297 297 296 294 293 292 290 289 287 285 282 278 275 272 270 270 269 269 269 269 269 270 270 269 267 264 262 261 262 263 262 258 252 249 248 247 244 239 238 241 244 245 246 246 246 246 248 250 252 252 252 251 251 254 254 251 250 251 252 254 258 258 257 255 256 260 260 256 254 255 255 255 254 255 258 260 260 260
288 289 290 291 294 297 298 299 298 296 294 293 291 289 287 286 284 281 278 275 273 271 269 268 268 267 267 267 267 267 267 266 264 261 259 257 257 259 259 256 252 249 248 246 242 238 238 240 241 243 244 245 247 249 251 251 251 250 251 252 253 253 252 251 252 252 253 255 255 255 256 256 260 261 258 255 254 253 253 253 253 254 256 257 256
287 288 290 293 296 298 299 298 296 294 292 290 288 287 284 283 281 279 277 274 272 270 269 267 267 266 266 266 266 266 265 263 262 260 258 256 254 254 255 256 254 251 249 248 244 240 239 239 240 241 241 244 248 250 250 250 250 251 253 255 255 255 254 254 254 254 254 255 254 255 254 256 259 261 258 255 253 253 254 253 249 246 250 257 261
287 289 292 295 297 298 297 295 293 291 290 288 287 284 282 280 278 277 275 273 270 269 267 266 266 265 266 266 266 266 264 263 261 259 257 255 253 251 250 252 253 252 249 248 247 243 240 239 239 239 239 241 244 247 248 250 251 253 255 255 255 256 257 257 258 258 257 256 256 255 252 253 258 259 257 254 253 254 254 252 247 246 250 259 266
288 291 293 296 297 296 295 294 292 291 290 288 286 284 282 279 277 274 273 272 271 269 267 267 266 265 265 265 265 265 263 262 261 259 257 255 253 251 249 248 250 251 250 248 246 244 241 239 239 238 237 239 244 246 249 252 253 253 253 254 254 256 259 260 260 261 259 258 259 256 251 250 254 255 254 252 251 251 250 247 245 247 252 261 267
290 293 296 297 297 296 295 293 292 291 290 288 287 285 283 280 278 275 273 271 270 270 269 268 268 267 267 266 265 264 263 261 260 259 258 257 255 253 251 248 248 250 252 251 248 245 243 241 240 239 237 238 242 245 246 251 255 255 255 255 255 256 258 258 258 259 260 260 259 253 248 248 250 251 251 249 247 246 244 241 240 243 252 261 263
295 297 298 298 297 296 294 293 292 291 290 289 288 286 284 282 280 277 275 273 272 270 269 269 268 268 268 268 267 266 265 263 261 260 258 257 256 254 252 250 248 248 249 251 251 249 246 243 242 241 238 237 239 242 243 246 251 255 256 254 253 253 253 254 256 258 258 259 258 253 249 249 248 249 250 247 243 241 237 236 236 241 252 260 261
299 299 298 296 296 295 294 293 292 291 290 290 289 287 286 284 283 280 279 277 275 273 271 269 268 267 267 267 267 267 266 265 264 263 261 259 258 255 253 251 249 247 246 249 252 251 247 245 243 241 240 238 238 240 241 241 243 248 251 251 251 252 252 253 255 257 257 259 259 256 253 251 247 248 250 247 243 240 234 231 232 238 248 255 257
300 298 297 296 295 295 294 294 294 293 292 292 291 289 288 287 285 283 281 279 277 275 274 272 270 269 267 266 266 265 265 265 264 264 263 262 259 257 255 252 248 246 245 247 251 252 249 246 244 242 241 240 238 238 240 240 240 241 244 247 249 251 252 253 255 256 258 259 258 254 251 249 245 244 245 245 241 238 233 230 232 239 247 254 256
297 296 296 296 295 295 295 295 295 295 295 294 293 292 291 289 288 286 284 282 280 278 277 275 273 271 270 268 267 266 265 264 263 263 263 262 260 259 256 253 248 245 244 246 249 251 249 246 243 240 239 240 240 239 239 240 240 240 241 244 247 249 249 251 253 254 255 257 258 253 248 245 243 242 242 242 240 237 234 234 237 242 249 254 255
Height
3162 3163 3163 3163 3164 3164 3164 3165 3165 3167 3167 3167 3167 3167 3168 3169 3169 3170 3171 3173 3174 3175 3177 3178 3179 3180 3181 3182 3183 3184 3185 3186 3189 3191 3193 3195 3196 3197 3198 3199 3200 3201 3202 3203 3204 3204 3205 3206 3206 3207 3207 3208 3209 3209 3209 3209 3209 3210 3209 3210 3209 3209 3208 3208 3207 3206 3205 3204 3203 3202 3201 3200 3199 3197 3196 3195 3193 3192 3191 3190 3188 3188 3187 3187 3186
3162 3163 3163 3163 3163 3164 3164 3164 3165 3166 3166 3167 3167 3167 3167 3168 3169 3170 3171 3172 3173 3174 3176 3177 3178 3179 3180 3181 3182 3183 3184 3184 3187 3190 3191 3193 3194 3196 3197 3197 3199 3200 3201 3202 3203 3204 3204 3205 3205 3206 3206 3207 3207 3208 3208 3208 3208 3209 3209 3209 3209 3208 3208 3207 3206 3205 3204 3204 3203 3202 3201 3200 3198 3197 3196 3195 3193 3192 3191 3190 3189 3188 3187 3187 3187
3161 3161 3161 3162 3163 3163 3164 3164 3164 3165 3165 3165 3166 3167 3167 3167 3168 3169 3170 3171 3173 3173 3174 3176 3177 3178 3179 3180 3181 3182 3183 3183 3185 3188 3189 3191 3193 3194 3195 3196 3197 3198 3199 3200 3201 3202 3203 3204 3205 3205 3205 3205 3206 3207 3207 3207 3208 3208 3208 3208 3208 3207 3207 3206 3206 3205 3204 3203 3202 3202 3201 3199 3198 3197 3196 3195 3193 3192 3191 3190 3189 3188 3187 3187 3187
3160 3159 3160 3161 3162 3162 3162 3163 3164 3164 3164 3164 3165 3166 3167 3168 3168 3168 3169 3170 3171 3173 3174 3175 3176 3177 3178 3179 3180 3181 3182 3183 3184 3186 3188 3189 3191 3192 3193 3194 3195 3196 3198 3199 3200 3201 3202 3203 3204 3204 3204 3204 3205 3205 3206 3206 3206 3206 3206 3206 3207 3206 3206 3206 3205 3204 3203 3202 3202 3201 3200 3199 3198 3197 3196 3195 3193 3193 3192 3191 3189 3188 3188 3187 3187
3159 3159 3159 3160 3160 3160 3160 3161 3163 3163 3163 3163 3165 3165 3166 3167 3167 3167 3168 3169 3170 3172 3173 3174 3175 3176 3177 3178 3179 3180 3181 3182 3182 3184 3186 3188 3189 3191 3192 3193 3194 3195 3196 3197 3198 3200 3201 3202 3202 3203 3203 3203 3203 3204 3204 3205 3205 3205 3205 3205 3205 3205 3205 3204 3204 3203 3203 3202 3201 3200 3199 3198 3197 3196 3195 3194 3193 3192 3191 3190 3189 3189 3188 3187 3187
3157 3157 3158 3159 3159 3159 3160 3161 3162 3162 3162 3163 3164 3164 3165 3166 3167 3167 3167 3168 3169 3170 3172 3174 3175 3176 3177 3177 3178 3179 3179 3180 3180 3182 3184 3186 3187 3189 3190 3191 3192 3193 3194 3195 3196 3198 3199 3200 3201 3201 3202 3202 3202 3202 3202 3203 3203 3203 3204 3204 3204 3204 3204 3203 3203 3202 3202 3201 3200 3200 3199 3198 3197 3196 3195 3194 3193 3192 3191 3190 3189 3188 3188 3187 3187
3154 3156 3157 3158 3158 3159 3159 3159 3159 3160 3161 3162 3163 3164 3164 3164 3166 3167 3167 3167 3168 3169 3171 3173 3174 3175 3176 3176 3177 3178 3178 3179 3179 3180 3181 3184 3185 3187 3188 3189 3190 3191 3192 3194 3194 3196 3197 3198 3199 3200 3200 3201 3201 3201 3200 3201 3202 3202 3202 3202 3202 3203 3202 3202 3202 3201 3201 3200 3200 3199 3198 3197 3196 3195 3194 3193 3192 3191 3191 3190 3189 3188 3187 3187 3186
3151 3154 3156 3156 3156 3157 3157 3157 3157 3157 3159 3161 3162 3163 3162 3163 3165 3166 3167 3167 3167 3168 3169 3171 3173 3173 3174 3174 3175 3176 3177 3178 3178 3179 3179 3181 3184 3185 3186 3188 3189 3189 3190 3191 3193 3194 3195 3196 3197 3198 3198 3199 3199 3199 3199 3199 3200 3200 3200 3201 3201 3201 3201 3201 3200 3200 3199 3199 3199 3198 3197 3196 3195 3194 3193 3193 3192 3191 3190 3189 3188 3188 3187 3186 3186
3149 3152 3154 3154 3153 3153 3155 3155 3154 3155 3157 3159 3160 3161 3161 3162 3164 3164 3165 3166 3166 3167 3168 3169 3170 3171 3172 3173 3173 3174 3175 3176 3177 3177 3177 3179 3181 3183 3184 3185 3187 3188 3189 3189 3190 3192 3193 3194 3195 3195 3196 3197 3197 3198 3197 3197 3197 3198 3198 3199 3199 3199 3199 3199 3199 3199 3198 3198 3197 3197 3196 3195 3194 3193 3192 3192 3191 3190 3189 3188 3188 3187 3186 3186 3185
3147 3149 3152 3153 3153 3151 3151 3152 3152 3154 3156 3157 3158 3159 3160 3161 3162 3163 3164 3165 3165 3166 3167 3168 3169 3170 3171 3171 3172 3172 3172 3174 3175 3176 3177 3177 3178 3180 3182 3183 3184 3185 3186 3187 3188 3190 3191 3192 3193 3193 3194 3195 3195 3196 3196 3195 3195 3196 3197 3197 3197 3197 3197 3198 3198 3197 3197 3196 3196 3196 3195 3194 3193 3192 3191 3191 3190 3189 3188 3187 3187 3186 3185 3185 3184
3146 3147 3148 3150 3151 3150 3149 3149 3149 3152 3154 3156 3157 3158 3159 3160 3161 3162 3163 3164 3164 3165 3166 3167 3168 3169 3170 3170 3171 3171 3171 3172 3173 3175 3176 3176 3176 3177 3179 3181 3182 3182 3183 3184 3186 3187 3188 3189 3190 3191 3192 3192 3193 3193 3193 3193 3193 3194 3194 3195 3195 3195 3195 3196 3196 3195 3195 3195 3194 3194 3193 3193 3192 3191 3190 3189 3189 3188 3187 3186 3185 3185 3184 3184 3183
3143 3145 3146 3147 3148 3148 3148 3148 3148 3149 3151 3154 3158 3159 3159 3159 3159 3159 3160 3162 3163 3164 3164 3165 3166 3167 3168 3168 3169 3170 3170 3171 3171 3172 3173 3174 3174 3174 3175 3177 3178 3180 3181 3182 3183 3184 3185 3186 3187 3187 3188 3189 3190 3190 3191 3191 3191 3192 3192 3192 3193 3193 3194 3194 3194 3194 3193 3193 3193 3192 3192 3191 3190 3190 3189 3188 3187 3186 3186 3185 3184 3184 3183 3183 3182
3141 3142 3143 3144 3145 3146 3147 3147 3147 3147 3148 3152 3157 3158 3158 3158 3157 3157 3159 3161 3162 3162 3163 3163 3164 3165 3165 3165 3166 3167 3168 3169 3169 3169 3170 3172 3173 3173 3173 3173 3174 3175 3177 3179 3180 3181 3182 3183 3184 3184 3185 3186 3187 3188 3189 3189 3189 3190 3190 3190 3191 3192 3192 3192 3192 3192 3192 3191 3191 3191 3190 3190 3189 3188 3187 3186 3186 3185 3184 3183 3183 3182 3182 3182 3182
3138 3140 3141 3142 3142 3143 3144 3144 3145 3146 3146 3150 3153 3154 3154 3155 3156 3157 3158 3159 3160 3161 3161 3161 3162 3163 3163 3163 3162 3163 3165 3166 3167 3167 3168 3169 3170 3171 3171 3170 3170 3171 3172 3174 3176 3178 3179 3180 3181 3182 3182 3183 3184 3185 3186 3187 3187 3188 3188 3188 3189 3190 3190 3190 3190 3191 3190 3189 3189 3189 3188 3188 3187 3186 3186 3185 3184 3183 3182 3182 3181 3181 3180 3180 3181
3136 3137 3138 3139 3140 3140 3141 3142 3142 3143 3144 3147 3149 3150 3151 3151 3152 3155 3156 3156 3158 3158 3158 3159 3160 3161 3161 3161 3161 3161 3161 3163 3164 3165 3167 3167 3167 3167 3168 3168 3168 3168 3168 3169 3171 3173 3175 3176 3177 3178 3179 3180 3181 3182 3183 3184 3185 3185 3186 3186 3186 3187 3187 3187 3188 3188 3189 3188 3187 3187 3186 3186 3185 3185 3184 3183 3182 3182 3181 3180 3180 3179 3179 3179 3179
3134 3135 3136 3137 3137 3138 3139 3139 3140 3140 3141 3143 3145 3147 3148 3148 3149 3151 3152 3154 3155 3156 3156 3157 3158 3159 3159 3159 3160 3159 3159 3160 3161 3163 3164 3165 3165 3165 3165 3166 3166 3165 3165 3166 3167 3169 3171 3172 3174 3175 3176 3177 3178 3179 3179 3180 3182 3183 3183 3183 3184 3184 3184 3185 3185 3186 3186 3186 3185 3185 3184 3184 3183 3183 3182 3182 3181 3180 3179 3179 3178 3178 3177 3178 3178
3132 3132 3133 3134 3135 3136 3136 3137 3137 3137 3139 3140 3142 3143 3144 3145 3146 3147 3149 3151 3151 3152 3154 3155 3155 3155 3155 3156 3157 3157 3157 3158 3159 3160 3161 3162 3163 3163 3163 3164 3164 3164 3163 3163 3164 3165 3167 3168 3170 3171 3172 3173 3174 3175 3176 3177 3178 3180 3180 3180 3181 3181 3181 3182 3182 3183 3184 3184 3183 3183 3182 3182 3181 3181 3180 3180 3179 3178 3178 3177 3177 3176 3176 3176 3176
3130 3130 3131 3132 3133 3133 3134 3134 3134 3135 3136 3137 3138 3140 3141 3141 3142 3144 3145 3147 3147 3148 3151 3152 3151 3151 3152 3155 3155 3154 3155 3155 3156 3157 3158 3159 3160 3161 3161 3162 3162 3162 3162 3162 3162 3162 3163 3164 3165 3167 3168 3169 3171 3172 3173 3174 3175 3176 3177 3177 3178 3178 3179 3179 3179 3179 3180 3181 3181 3180 3180 3179 3179 3179 3179 3178 3177 3177 3176 3176 3175 3175 3174 3174 3174
3128 3128 3129 3129 3130 3131 3131 3131 3131 3132 3133 3134 3135 3136 3136 3137 3138 3140 3141 3142 3143 3144 3147 3148 3147 3148 3151 3152 3151 3151 3152 3153 3153 3154 3155 3156 3157 3158 3159 3159 3159 3159 3159 3159 3159 3159 3160 3160 3161 3163 3164 3165 3167 3168 3170 3171 3172 3173 3174 3174 3175 3175 3176 3176 3176 3176 3177 3178 3179 3178 3177 3177 3177 3177 3176 3176 3175 3175 3174 3174 3173 3173 3172 3172 3171
3127 3127 3127 3127 3128 3128 3128 3129 3129 3129 3130 3130 3131 3132 3133 3134 3134 3136 3137 3138 3138 3140 3142 3143 3143 3145 3147 3147 3147 3147 3149 3151 3152 3151 3151 3152 3153 3154 3156 3156 3156 3156 3157 3157 3157 3157 3157 3157 3158 3159 3160 3161 3163 3164 3166 3167 3169 3170 3170 3171 3172 3172 3172 3172 3173 3172 3173 3175 3176 3175 3174 3174 3174 3174 3174 3174 3173 3173 3172 3172 3172 3171 3171 3170 3170
3124 3125 3125 3125 3126 3126 3126 3126 3126 3127 3127 3127 3128 3129 3129 3130 3131 3132 3133 3134 3135 3136 3137 3138 3140 3141 3142 3143 3143 3144 3145 3146 3148 3148 3147 3148 3149 3150 3152 3153 3153 3153 3154 3154 3154 3154 3154 3154 3155 3155 3156 3157 3158 3160 3161 3162 3164 3166 3167 3167 3168 3168 3168 3168 3169 3169 3169 3171 3172 3171 3171 3171 3171 3171 3171 3171 3171 3170 3170 3170 3170 3169 3169 3168 3168
3122 3122 3123 3123 3123 3124 3124 3124 3124 3125 3125 3125 3125 3125 3126 3127 3127 3128 3129 3131 3131 3132 3133 3134 3136 3137 3138 3139 3140 3140 3141 3142 3144 3145 3144 3144 3145 3147 3149 3149 3149 3150 3150 3151 3151 3151 3151 3151 3151 3152 3153 3153 3154 3155 3156 3158 3159 3161 3162 3163 3164 3164 3164 3164 3165 3166 3166 3167 3168 3167 3168 3168 3168 3168 3168 3169 3168 3168 3168 3168 3168 3167 3167 3166 3166
3121 3120 3120 3120 3120 3121 3121 3122 3122 3122 3123 3123 3123 3123 3123 3124 3124 3125 3126 3127 3128 3128 3129 3130 3131 3133 3134 3134 3135 3136 3137 3138 3140 3141 3140 3140 3141 3143 3145 3146 3145 3146 3147 3147 3148 3148 3148 3148 3147 3148 3149 3150 3150 3150 3151 3153 3154 3156 3158 3159 3158 3159 3160 3161 3162 3162 3162 3163 3164 3164 3164 3165 3165 3165 3165 3166 3166 3166 3166 3166 3165 3165 3165 3164 3164
3119 3119 3119 3119 3119 3119 3119 3119 3119 3120 3120 3120 3120 3120 3120 3121 3121 3122 3123 3123 3124 3124 3125 3126 3127 3128 3130 3130 3131 3132 3132 3134 3136 3136 3136 3137 3138 3138 3141 3143 3142 3142 3143 3144 3144 3145 3145 3145 3145 3145 3145 3146 3146 3147 3147 3148 3149 3151 3153 3155 3153 3153 3156 3157 3158 3158 3159 3160 3160 3160 3161 3161 3161 3162 3162 3162 3163 3163 3163 3163 3163 3163 3162 3162 3162
3116 3116 3117 3117 3117 3117 3117 3117 3117 3117 3117 3118 3118 3117 3117 3118 3118 3119 3119 3120 3120 3120 3121 3122 3122 3123 3125 3126 3127 3128 3128 3130 3131 3132 3132 3133 3133 3133 3137 3138 3137 3138 3139 3139 3140 3141 3142 3142 3143 3143 3143 3142 3143 3144 3144 3144 3145 3146 3149 3150 3150 3149 3150 3152 3153 3154 3155 3156 3156 3156 3157 3157 3158 3158 3159 3159 3160 3160 3160 3160 3161 3160 3160 3159 3159
3113 3113 3114 3114 3114 3115 3115 3115 3114 3114 3114 3114 3114 3114 3114 3115 3115 3116 3116 3116 3116 3116 3117 3118 3118 3119 3120 3121 3122 3123 3124 3126 3127 3127 3128 3129 3129 3130 3132 3133 3133 3134 3135 3135 3136 3137 3138 3139 3140 3139 3140 3140 3140 3140 3141 3141 3141 3143 3144 3146 3146 3145 3146 3148 3149 3150 3151 3152 3152 3152 3153 3153 3154 3154 3155 3156 3156 3157 3157 3158 3158 3157 3157 3157 3157
3111 3111 3111 3111 3111 3112 3112 3112 3112 3112 3112 3112 3112 3112 3111 3111 3112 3112 3113 3113 3113 3113 3113 3114 3114 3114 3115 3116 3116 3117 3119 3121 3122 3123 3124 3124 3125 3126 3127 3128 3128 3129 3130 3130 3131 3132 3134 3136 3136 3136 3137 3137 3137 3138 3138 3138 3138 3139 3140 3141 3142 3141 3142 3144 3145 3146 3147 3148 3147 3147 3148 3149 3150 3151 3152 3153 3153 3154 3154 3154 3155 3155 3154 3154 3154
3109 3109 3108 3108 3108 3109 3109 3109 3109 3110 3110 3109 3109 3109 3108 3108 3108 3109 3109 3109 3109 3110 3110 3110 3110 3111 3111 3111 3111 3112 3114 3116 3117 3118 3120 3120 3121 3122 3123 3123 3124 3124 3125 3126 3126 3128 3131 3132 3132 3133 3133 3133 3133 3134 3135 3136 3136 3136 3137 3137 3137 3137 3138 3139 3141 3141 3143 3143 3143 3143 3144 3145 3146 3147 3148 3149 3150 3151 3151 3151 3152 3152 3152 3151 3151
3107 3107 3107 3106 3106 3106 3106 3106 3106 3107 3107 3106 3106 3105 3105 3105 3105 3105 3105 3105 3105 3106 3106 3106 3107 3107 3107 3107 3107 3108 3110 3111 3112 3113 3114 3116 3117 3118 3118 3119 3120 3120 3120 3120 3121 3124 3127 3127 3128 3129 3129 3128 3129 3130 3132 3133 3133 3133 3133 3134 3134 3134 3134 3135 3137 3137 3138 3139 3139 3139 3140 3141 3143 3144 3145 3146 3147 3147 3148 3148 3148 3148 3149 3149 3148
3105 3105 3105 3104 3104 3104 3104 3103 3103 3103 3103 3103 3102 3102 3101 3102 3102 3102 3101 3100 3100 3102 3102 3102 3103 3103 3102 3103 3103 3104 3105 3106 3106 3107 3109 3110 3111 3113 3114 3115 3115 3115 3116 3116 3116 3120 3122 3123 3124 3125 3125 3125 3126 3126 3127 3129 3131 3130 3130 3131 3131 3131 3131 3132 3133 3134 3134 3135 3135 3136 3137 3138 3139 3140 3141 3142 3143 3144 3145 3145 3145 3145 3145 3145 3145
3102 3102 3102 3102 3101 3101 3101 3101 3100 3100 3100 3099 3099 3098 3098 3098 3098 3098 3098 3097 3096 3097 3098 3098 3098 3098 3098 3098 3099 3099 3100 3101 3101 3102 3103 3104 3105 3107 3108 3110 3110 3111 3112 3112 3111 3114 3118 3118 3120 3121 3121 3121 3122 3123 3123 3124 3126 3126 3126 3128 3128 3128 3129 3129 3130 3130 3131 3131 3132 3133 3134 3135 3136 3137 3138 3139 3140 3141 3141 3142 3142 3142 3142 3142 3142
3099 3099 3099 3098 3098 3098 3098 3097 3097 3097 3096 3096 3095 3094 3094 3094 3094 3094 3094 3093 3092 3092 3093 3093 3093 3094 3094 3094 3094 3094 3095 3095 3096 3096 3097 3098 3099 3101 3102 3104 3105 3106 3108 3107 3106 3108 3112 3114 3114 3115 3116 3117 3117 3119 3120 3120 3122 3122 3122 3124 3125 3125 3126 3126 3127 3127 3128 3128 3129 3129 3130 3131 3132 3133 3134 3135 3136 3137 3138 3138 3139 3139 3139 3139 3139
3096 3096 3096 3095 3094 3094 3094 3094 3093 3093 3093 3092 3091 3091 3090 3090 3090 3090 3090 3089 3088 3088 3088 3088 3088 3088 3088 3089 3089 3090 3090 3090 3091 3091 3092 3093 3094 3095 3096 3097 3099 3100 3102 3102 3101 3103 3106 3108 3109 3110 3111 3112 3112 3114 3116 3116 3117 3118 3119 3120 3121 3122 3122 3123 3124 3124 3125 3125 3126 3126 3127 3128 3130 3130 3131 3132 3133 3134 3135 3135 3136 3136 3136 3135 3136
3093 3092 3092 3091 3091 3091 3090 3090 3089 3089 3088 3088 3087 3087 3086 3086 3086 3085 3085 3084 3084 3084 3084 3084 3083 3083 3083 3083 3084 3085 3085 3085 3085 3086 3087 3088 3088 3089 3090 3091 3093 3095 3096 3097 3097 3098 3100 3102 3104 3104 3105 3106 3107 3110 3111 3112 3113 3115 3115 3117 3118 3118 3119 3120 3121 3121 3122 3122 3122 3123 3124 3125 3126 3127 3128 3129 3130 3131 3131 3132 3132 3133 3132 3132 3132
3089 3089 3088 3088 3087 3087 3086 3086 3085 3085 3084 3084 3083 3082 3081 3081 3081 3080 3080 3079 3079 3079 3079 3079 3079 3078 3077 3077 3078 3079 3079 3079 3080 3081 3081 3082 3083 3084 3085 3086 3087 3089 3091 3092 3092 3092 3095 3097 3098 3099 3100 3101 3102 3105 3107 3108 3109 3110 3111 3113 3114 3114 3115 3116 3117 3118 3119 3119 3119 3120 3121 3122 3123 3124 3125 3125 3126 3127 3128 3128 3129 3129 3129 3129 3129
3086 3086 3085 3084 3083 3083 3082 3082 3081 3080 3080 3079 3078 3077 3077 3076 3076 3075 3075 3074 3074 3073 3073 3073 3073 3073 3072 3072 3073 3073 3073 3073 3074 3075 3076 3077 3077 3078 3080 3081 3082 3083 3085 3087 3087 3088 3089 3092 3093 3093 3095 3096 3097 3100 3102 3103 3105 3107 3107 3108 3109 3110 3111 3113 3114 3115 3115 3115 3116 3116 3117 3118 3119 3121 3121 3122 3122 3123 3124 3125 3125 3126 3126 3126 3126
3082 3082 3081 3080 3079 3078 3078 3077 3077 3076 3075 3074 3073 3072 3072 3071 3071 3070 3069 3069 3068 3067 3067 3067 3068 3068 3067 3067 3067 3068 3067 3067 3068 3070 3071 3071 3072 3073 3074 3076 3077 3078 3079 3080 3082 3083 3084 3086 3087 3088 3089 3091 3092 3094 3096 3098 3100 3102 3103 3104 3104 3106 3108 3110 3111 3111 3111 3112 3113 3114 3114 3115 3116 3117 3118 3118 3119 3120 3121 3121 3122 3122 3123 3123 3123
3077 3077 3076 3075 3075 3074 3073 3073 3072 3071 3070 3069 3068 3067 3066 3066 3065 3065 3064 3063 3062 3061 3061 3062 3062 3062 3061 3061 3062 3062 3062 3062 3062 3063 3065 3066 3066 3067 3068 3070 3072 3074 3075 3075 3076 3078 3078 3080 3082 3083 3083 3086 3087 3088 3090 3093 3095 3097 3098 3099 3100 3102 3104 3106 3107 3108 3109 3109 3109 3110 3111 3111 3112 3113 3114 3115 3116 3117 3117 3118 3119 3119 3119 3120 3120
3073 3072 3071 3070 3070 3069 3068 3068 3067 3066 3065 3063 3062 3061 3060 3060 3059 3058 3058 3057 3056 3055 3055 3055 3056 3056 3056 3056 3056 3057 3057 3057 3056 3057 3058 3059 3060 3061 3062 3064 3066 3068 3070 3071 3072 3073 3074 3075 3077 3078 3079 3080 3082 3083 3085 3087 3089 3091 3092 3093 3096 3098 3099 3101 3103 3105 3105 3105 3106 3107 3108 3108 3109 3110 3111 3112 3113 3113 3114 3115 3115 3116 3116 3117 3117
3068 3067 3066 3065 3064 3063 3063 3063 3062 3061 3059 3058 3056 3055 3054 3053 3053 3052 3051 3051 3050 3049 3049 3049 3050 3050 3050 3050 3051 3051 3051 3051 3051 3051 3052 3053 3053 3055 3056 3058 3059 3061 3062 3065 3067 3068 3069 3070 3071 3073 3074 3074 3075 3077 3079 3080 3081 3084 3087 3089 3091 3093 3095 3097 3099 3101 3101 3102 3103 3104 3104 3105 3105 3106 3107 3108 3109 3110 3111 3112 3112 3113 3113 3114 3115
3063 3062 3061 3060 3059 3058 3058 3058 3057 3055 3054 3052 3050 3049 3048 3047 3046 3045 3045 3044 3044 3043 3043 3043 3044 3044 3044 3044 3045 3045 3046 3046 3046 3046 3046 3047 3047 3048 3050 3052 3053 3054 3056 3058 3060 3061 3062 3064 3066 3068 3069 3069 3070 3072 3073 3074 3076 3080 3083 3085 3086 3089 3091 3092 3094 3095 3097 3098 3099 3100 3100 3101 3102 3102 3103 3104 3105 3106 3107 3108 3109 3110 3110 3111 3112
3058 3057 3056 3054 3054 3053 3053 3052 3051 3049 3048 3046 3045 3043 3042 3040 3039 3038 3038 3038 3037 3037 3036 3037 3037 3038 3038 3038 3038 3039 3040 3040 3040 3041 3041 3041 3041 3042 3044 3045 3046 3047 3049 3051 3054 3055 3056 3057 3060 3062 3063 3064 3065 3066 3067 3070 3073 3076 3077 3079 3082 3084 3085 3086 3087 3090 3092 3093 3095 3096 3097 3098 3098 3099 3099 3101 3102 3103 3104 3105 3106 3107 3108 3108 3108
3054 3052 3051 3050 3049 3048 3047 3046 3044 3043 3041 3040 3039 3038 3036 3034 3033 3031 3031 3031 3030 3030 3030 3030 3030 3031 3031 3031 3032 3032 3033 3034 3034 3034 3035 3036 3036 3036 3037 3039 3040 3041 3042 3044 3047 3049 3051 3051 3053 3055 3057 3059 3061 3062 3063 3065 3068 3069 3071 3074 3076 3077 3079 3081 3083 3085 3087 3088 3091 3092 3093 3094 3094 3095 3096 3097 3098 3099 3100 3101 3102 3104 3105 3104 3104
3049 3047 3046 3045 3045 3044 3042 3040 3038 3036 3035 3033 3032 3031 3030 3028 3026 3025 3024 3024 3023 3023 3023 3023 3023 3024 3024 3024 3025 3025 3026 3027 3028 3028 3028 3029 3030 3030 3031 3032 3034 3035 3036 3037 3039 3042 3044 3046 3047 3049 3051 3054 3057 3057 3058 3060 3062 3064 3067 3069 3070 3072 3074 3076 3077 3080 3082 3084 3085 3087 3088 3089 3090 3091 3092 3094 3094 3095 3096 3098 3099 3100 3101 3100 3100
3044 3042 3042 3041 3040 3039 3037 3034 3032 3030 3029 3027 3026 3025 3023 3022 3020 3019 3018 3017 3017 3016 3016 3016 3016 3016 3017 3017 3017 3018 3019 3020 3021 3021 3022 3023 3024 3024 3025 3026 3027 3029 3030 3031 3033 3035 3038 3039 3041 3043 3046 3049 3050 3052 3054 3056 3057 3059 3061 3063 3065 3067 3070 3071 3073 3076 3078 3079 3079 3081 3083 3084 3086 3087 3088 3090 3091 3091 3093 3094 3095 3096 3096 3096 3097
3039 3038 3037 3037 3035 3033 3031 3028 3026 3024 3023 3021 3020 3018 3017 3016 3014 3013 3011 3010 3010 3010 3009 3009 3009 3009 3009 3009 3009 3010 3011 3013 3014 3014 3015 3016 3017 3017 3018 3019 3020 3022 3024 3025 3027 3028 3030 3032 3033 3036 3040 3043 3044 3046 3050 3052 3052 3054 3056 3058 3060 3063 3065 3067 3069 3070 3071 3073 3076 3077 3079 3080 3082 3082 3084 3086 3086 3087 3089 3090 3091 3092 3092 3092 3093
3034 3033 3032 3031 3029 3027 3025 3022 3020 3018 3017 3016 3014 3012 3011 3009 3008 3006 3005 3004 3003 3003 3003 3002 3002 3002 3002 3002 3002 3002 3003 3004 3006 3007 3008 3009 3009 3010 3011 3012 3014 3016 3017 3019 3021 3022 3023 3025 3026 3029 3033 3036 3038 3040 3044 3046 3047 3049 3051 3053 3055 3057 3059 3061 3062 3063 3064 3068 3071 3073 3074 3076 3078 3078 3080 3081 3081 3083 3085 3085 3086 3087 3088 3089 3090
3029 3028 3027 3025 3023 3021 3018 3016 3014 3012 3011 3010 3008 3006 3005 3003 3001 3000 2998 2997 2996 2996 2996 2996 2995 2995 2995 2994 2994 2994 2995 2996 2997 2999 3000 3001 3001 3002 3004 3005 3007 3009 3010 3013 3015 3016 3017 3018 3020 3023 3027 3030 3032 3034 3037 3040 3042 3044 3046 3047 3048 3050 3053 3055 3056 3058 3060 3062 3065 3067 3069 3071 3073 3074 3076 3076 3077 3078 3080 3081 3082 3083 3083 3085 3086
3024 3023 3021 3018 3017 3015 3013 3011 3009 3007 3006 3004 3002 3000 2998 2997 2995 2993 2991 2990 2989 2988 2988 2988 2988 2988 2987 2987 2986 2986 2986 2987 2988 2989 2990 2991 2992 2994 2996 2998 2999 3000 3003 3006 3008 3009 3011 3012 3014 3016 3020 3023 3025 3027 3030 3034 3037 3038 3039 3039 3041 3045 3048 3050 3051 3053 3056 3057 3060 3062 3064 3066 3069 3070 3071 3072 3072 3073 3075 3077 3078 3078 3079 3080 3082
3019 3017 3015 3013 3011 3009 3007 3005 3003 3001 3000 2998 2996 2994 2992 2990 2988 2986 2984 2982 2980 2980 2979 2979 2979 2979 2979 2979 2978 2977 2977 2978 2978 2979 2980 2981 2983 2985 2987 2989 2991 2992 2996 2999 3001 3002 3004 3006 3008 3010 3013 3016 3019 3021 3024 3027 3029 3031 3032 3033 3036 3039 3042 3044 3046 3049 3050 3052 3055 3057 3058 3060 3063 3065 3065 3067 3068 3069 3070 3072 3073 3074 3075 3076 3077
3014 3012 3010 3008 3006 3005 3003 3000 2998 2996 2994 2992 2990 2987 2985 2983 2981 2978 2976 2973 2972 2971 2970 2970 2970 2969 2969 2969 2968 2968 2967 2968 2969 2969 2970 2971 2972 2974 2977 2979 2981 2985 2989 2991 2993 2995 2997 2998 3000 3003 3005 3009 3012 3015 3018 3020 3022 3024 3026 3028 3031 3032 3035 3038 3041 3043 3044 3046 3050 3052 3052 3054 3058 3060 3061 3063 3064 3065 3067 3068 3069 3070 3071 3072 3072